EW1373 Weather Reports


Display with metric or nautical units.
time (UTC)temp
F
wind
direction
speed
MPH
gust
MPH
rain 1hr
in
rain 24hr
in
rain mn
in
humidity
%
barometer
mb
20180921072316 50 0.0 1.0 0.00 0.00 0.00 36 1019.2
20180921071318 49 0.0 0.0 0.00 0.00 0.00 36 1019.3
20180921070318 49 0.0 0.0 0.00 0.00 0.00 36 1019.2
20180921065318 49 0.0 0.0 0.00 0.00 0.00 36 1019.3
20180921064317 49 0.0 1.0 0.00 0.00 0.00 36 1019.4
20180921063317 49 0.0 0.0 0.00 0.00 0.00 36 1019.4
20180921062317 49 0.0 4.0 0.00 0.00 0.00 36 1019.4
20180921061317 48 0.0 4.0 0.00 0.00 0.00 36 1019.6
20180921060317 48 225 1.0 7.0 0.00 0.00 0.00 36 1019.6
20180921055317 48 225 1.0 7.0 0.00 0.00 0.00 36 1019.6
20180921054317 50 202 4.0 9.0 0.00 0.00 0.00 36 1019.6
20180921053317 51 247 3.0 10.0 0.00 0.00 0.00 35 1019.6
20180921052317 51 315 4.0 10.0 0.00 0.00 0.00 34 1019.5
20180921051317 50 292 5.0 10.0 0.00 0.00 0.00 35 1019.6
20180921050317 50 270 7.0 14.0 0.00 0.00 0.00 35 1019.6
20180921045322 51 292 6.0 18.0 0.00 0.00 0.00 35 1019.8
20180921044317 50 315 5.0 12.0 0.00 0.00 0.00 35 1019.7
20180921043317 50 270 7.0 18.0 0.00 0.00 0.00 35 1019.7
20180921042317 50 270 5.0 14.0 0.00 0.00 0.00 35 1019.7
20180921041320 50 292 8.0 15.0 0.00 0.00 0.00 35 1019.9
20180921040317 50 270 6.0 12.0 0.00 0.00 0.00 35 1019.9
20180921035320 50 315 8.0 16.0 0.00 0.00 0.00 35 1020.2
20180921034319 50 270 8.0 20.0 0.00 0.00 0.00 35 1020.1
20180921033319 51 292 7.0 18.0 0.00 0.00 0.00 35 1020.1
20180921032319 50 292 4.0 14.0 0.00 0.00 0.00 35 1020.2
20180921031319 48 247 3.0 9.0 0.00 0.00 0.00 35 1020.3
20180921030319 48 247 6.0 14.0 0.00 0.00 0.00 36 1020.3
20180921025319 48 270 6.0 14.0 0.00 0.00 0.00 36 1020.5
20180921024319 48 270 7.0 18.0 0.00 0.00 0.00 36 1020.5
20180921023319 48 292 5.0 12.0 0.00 0.00 0.00 36 1020.5
20180921022319 47 270 4.0 10.0 0.00 0.00 0.00 36 1020.4
20180921021319 47 270 6.0 12.0 0.00 0.00 0.00 36 1020.5
20180921020319 47 270 6.0 14.0 0.00 0.00 0.00 36 1020.5
20180921015319 46 270 3.0 9.0 0.00 0.00 0.00 37 1020.8
20180921014323 46 270 2.0 11.0 0.00 0.00 0.00 37 1020.8
20180921013319 45 292 3.0 8.0 0.00 0.00 0.00 37 1020.8
20180921012319 44 0 1.0 7.0 0.00 0.00 0.00 37 1020.8
20180921011319 43 0.0 4.0 0.00 0.00 0.00 37 1021.0
20180921010319 42 0.0 0.0 0.00 0.00 0.00 38 1021.0
20180921005319 42 0.0 0.0 0.00 0.00 0.00 38 1021.1
20180921004321 41 0.0 1.0 0.00 0.00 0.00 39 1021.0
20180921003321 41 0.0 1.0 0.00 0.00 0.00 39 1021.0
20180921002321 41 45 1.0 8.0 0.00 0.00 0.00 39 1021.1
20180921001321 40 45 1.0 6.0 0.00 0.00 0.00 39 1021.1
20180921000321 40 22 1.0 6.0 0.00 0.00 0.00 39 1021.1
20180920235321 40 22 2.0 7.0 0.00 0.00 0.00 39 1020.9
20180920234321 40 22 2.0 5.0 0.00 0.01 0.00 39 1021.0
20180920233321 40 22 1.0 5.0 0.00 0.01 0.00 39 1021.0
20180920232321 40 22 2.0 6.0 0.00 0.01 0.00 39 1021.0
20180920231321 39 22 2.0 6.0 0.00 0.01 0.00 39 1021.0
20180920230321 39 22 2.0 6.0 0.00 0.01 0.00 39 1021.0
20180920225321 39 22 1.0 5.0 0.00 0.01 0.00 39 1020.9
20180920224321 39 22 1.0 5.0 0.00 0.01 0.00 39 1020.7
20180920223325 39 22 1.0 6.0 0.00 0.01 0.00 39 1020.7
20180920222321 40 22 1.0 5.0 0.00 0.01 0.00 39 1020.6
20180920221321 40 22 1.0 5.0 0.00 0.01 0.00 39 1020.5
20180920220321 40 22 2.0 7.0 0.00 0.01 0.00 39 1020.5
20180920215321 40 22 1.0 6.0 0.00 0.01 0.00 39 1020.5
20180920214320 40 22 1.0 6.0 0.00 0.02 0.00 39 1020.4
20180920213323 40 0 1.0 5.0 0.00 0.02 0.00 39 1020.4
20180920212321 40 0 2.0 6.0 0.00 0.02 0.02 38 1020.4
20180920211321 41 0 1.0 5.0 0.00 0.02 0.02 38 1020.0
20180920210323 41 0 2.0 5.0 0.00 0.03 0.02 38 1020.0
20180920205323 42 0.0 1.0 0.00 0.03 0.02 38 1020.0
20180920204323 42 0.0 0.0 0.00 0.03 0.02 38 1020.2
20180920203323 41 0.0 1.0 0.00 0.03 0.02 38 1020.1
20180920202323 42 0.0 1.0 0.00 0.03 0.02 38 1020.3
20180920201323 41 0.0 1.0 0.00 0.03 0.02 38 1020.4
20180920200322 41 0.0 1.0 0.00 0.03 0.02 38 1020.4
20180920195323 42 0.0 5.0 0.00 0.04 0.02 38 1020.4
20180920194323 42 0.0 4.0 0.00 0.04 0.02 38 1020.3
20180920193322 43 0.0 4.0 0.00 0.04 0.02 38 1020.3
20180920192327 43 0.0 1.0 0.00 0.04 0.02 38 1020.4
20180920191322 43 0.0 1.0 0.00 0.04 0.02 38 1020.4
20180920190322 43 337 1.0 6.0 0.00 0.04 0.02 37 1020.4
20180920185322 43 0.0 5.0 0.00 0.04 0.02 37 1020.4
20180920184322 44 337 1.0 6.0 0.00 0.04 0.02 37 1020.5
20180920183322 44 315 1.0 6.0 0.00 0.04 0.02 37 1020.5
20180920182322 43 337 1.0 6.0 0.00 0.04 0.02 37 1020.5
20180920181322 44 0 1.0 6.0 0.00 0.04 0.02 37 1020.4
20180920180322 44 0 1.0 6.0 0.00 0.04 0.02 37 1020.4
20180920175324 44 292 1.0 5.0 0.00 0.04 0.02 37 1020.5
20180920174324 43 315 1.0 6.0 0.00 0.04 0.02 37 1020.5
20180920173324 43 0 1.0 6.0 0.00 0.04 0.02 37 1020.5
20180920172324 43 0 1.0 4.0 0.00 0.04 0.02 37 1020.7
20180920171324 43 22 1.0 6.0 0.00 0.04 0.02 37 1020.7
20180920170324 43 22 1.0 5.0 0.00 0.04 0.02 37 1020.7
20180920165324 43 22 1.0 5.0 0.00 0.04 0.02 37 1020.9
20180920164324 43 0.0 1.0 0.00 0.04 0.02 38 1021.1
20180920163324 43 90 1.0 5.0 0.00 0.04 0.02 38 1021.1
20180920162324 43 0.0 4.0 0.00 0.04 0.02 38 1021.1
20180920161328 44 0.0 6.0 0.00 0.04 0.02 37 1020.9
20180920160324 43 0.0 1.0 0.00 0.04 0.02 37 1020.9
20180920155324 44 0.0 6.0 0.00 0.04 0.02 37 1020.9
20180920154324 44 0.0 5.0 0.00 0.04 0.02 37 1020.9
20180920153324 43 0.0 4.0 0.00 0.04 0.02 37 1020.9
20180920152324 44 0.0 4.0 0.00 0.04 0.02 37 1020.8
20180920151324 44 0.0 4.0 0.00 0.04 0.02 37 1020.9
20180920150324 43 247 1.0 4.0 0.00 0.04 0.02 37 1020.9
20180920145324 44 247 1.0 9.0 0.00 0.04 0.02 37 1020.7
20180920144326 44 0.0 5.0 0.00 0.04 0.02 37 1020.7
20180920143326 44 270 3.0 10.0 0.00 0.04 0.02 37 1020.7
20180920142326 44 337 1.0 8.0 0.00 0.04 0.02 37 1020.7
20180920141326 44 337 1.0 5.0 0.00 0.04 0.02 36 1020.6
20180920140326 44 0.0 5.0 0.00 0.04 0.02 36 1020.6
20180920135326 45 337 1.0 5.0 0.00 0.04 0.02 36 1020.6
20180920134326 45 337 1.0 9.0 0.00 0.04 0.02 36 1020.7
20180920133326 45 337 1.0 7.0 0.00 0.04 0.02 36 1020.7
20180920132326 45 315 1.0 6.0 0.00 0.04 0.02 36 1020.6
20180920131326 45 270 1.0 6.0 0.00 0.04 0.02 36 1020.6
20180920130330 45 292 3.0 11.0 0.00 0.04 0.02 36 1020.6
20180920125326 45 315 2.0 8.0 0.00 0.04 0.02 36 1020.4
20180920124326 45 315 2.0 10.0 0.00 0.04 0.02 36 1020.5
20180920123326 45 270 5.0 14.0 0.00 0.04 0.02 36 1020.5
20180920122326 45 337 2.0 6.0 0.00 0.05 0.02 36 1020.4
20180920121326 45 337 4.0 9.0 0.00 0.05 0.02 36 1020.2
20180920120326 45 270 6.0 19.0 0.00 0.05 0.02 36 1020.2
20180920115326 45 337 5.0 13.0 0.00 0.05 0.02 36 1020.0
20180920114326 45 337 3.0 10.0 0.00 0.05 0.02 36 1020.0
20180920113326 45 22 2.0 7.0 0.00 0.05 0.02 37 1020.0
20180920112328 45 315 4.0 11.0 0.00 0.05 0.02 36 1019.9
20180920111327 45 315 5.0 19.0 0.00 0.05 0.02 36 1019.8
20180920110327 45 315 4.0 11.0 0.00 0.05 0.02 37 1019.8
20180920105327 45 0 4.0 13.0 0.00 0.05 0.02 37 1019.6
20180920104326 46 315 3.0 9.0 0.00 0.06 0.02 36 1019.5
20180920103326 45 337 6.0 24.0 0.00 0.06 0.02 36 1019.5
20180920102326 45 337 3.0 10.0 0.00 0.06 0.02 36 1019.4
20180920101326 46 0 3.0 10.0 0.00 0.06 0.02 36 1019.2
20180920100326 46 315 3.0 8.0 0.00 0.06 0.02 37 1019.2
20180920095333 46 315 3.0 11.0 0.00 0.06 0.02 37 1019.1
20180920094328 46 315 3.0 8.0 0.00 0.06 0.02 36 1018.9
20180920093328 46 0 2.0 9.0 0.00 0.06 0.02 36 1018.9
20180920092328 45 315 3.0 9.0 0.00 0.06 0.02 36 1018.6
20180920091329 45 292 3.0 13.0 0.00 0.06 0.02 36 1018.5
20180920090328 45 292 4.0 11.0 0.00 0.06 0.02 36 1018.5
20180920085328 45 0 3.0 13.0 0.00 0.06 0.02 36 1018.4
20180920084328 45 0 2.0 7.0 0.00 0.06 0.02 37 1018.4
20180920083328 45 315 3.0 12.0 0.00 0.06 0.02 37 1018.4
20180920082328 45 337 5.0 18.0 0.00 0.06 0.02 36 1018.3
20180920081328 45 22 3.0 11.0 0.00 0.06 0.02 36 1017.9
20180920080328 45 270 3.0 8.0 0.00 0.06 0.02 37 1018.0
20180920075328 44 247 3.0 14.0 0.00 0.06 0.02 37 1017.9
20180920074328 44 315 3.0 9.0 0.00 0.07 0.02 37 1017.9
20180920073328 44 315 2.0 12.0 0.00 0.09 0.02 37 1017.9